FDX1208 KGEG-KMEM

Flight info

Callsign FDX1208
Flight time 3h 3m
Altitude 35000
Route DLN CYS ICT RZC YRBRO CONDR4
Aircraft B77L/H-VGDW/C

Departure

Time 2026-05-05 13:37
Airport Spokane International Airport (KGEG)

Arrival

Time 2026-05-05 16:41
Airport Memphis International Airport (KMEM)
Time Latitude Longitude Altitude Speed Heading
2026-05-05 13:08 47.62785 -117.52932 2362 ft 0 kts 272°
2026-05-05 13:25 47.62785 -117.52911 2361 ft 2 kts 272°
2026-05-05 13:25 47.62784 -117.52889 2361 ft 2 kts 272°
2026-05-05 13:25 47.62783 -117.52866 2361 ft 2 kts 272°
2026-05-05 13:25 47.62782 -117.52844 2361 ft 2 kts 284°
2026-05-05 13:26 47.62777 -117.52824 2361 ft 2 kts 297°
2026-05-05 13:26 47.62770 -117.52805 2360 ft 2 kts 285°
2026-05-05 13:26 47.62768 -117.52782 2360 ft 2 kts 261°
2026-05-05 13:26 47.62772 -117.52761 2360 ft 2 kts 242°
2026-05-05 13:27 47.62781 -117.52743 2360 ft 2 kts 223°
2026-05-05 13:27 47.62785 -117.52737 2360 ft 0 kts 221°
2026-05-05 13:29 47.62780 -117.52743 2360 ft 2 kts 221°
2026-05-05 13:29 47.62760 -117.52773 2360 ft 5 kts 224°
2026-05-05 13:30 47.62723 -117.52829 2361 ft 9 kts 225°
2026-05-05 13:30 47.62664 -117.52917 2363 ft 14 kts 225°
2026-05-05 13:30 47.62590 -117.53031 2365 ft 14 kts 225°
2026-05-05 13:30 47.62526 -117.53129 2366 ft 12 kts 225°
2026-05-05 13:31 47.62471 -117.53210 2367 ft 11 kts 225°
2026-05-05 13:31 47.62414 -117.53296 2369 ft 12 kts 225°
2026-05-05 13:31 47.62352 -117.53389 2370 ft 13 kts 225°
2026-05-05 13:31 47.62282 -117.53494 2371 ft 15 kts 225°
2026-05-05 13:32 47.62202 -117.53616 2373 ft 16 kts 225°
2026-05-05 13:32 47.62125 -117.53731 2374 ft 14 kts 225°
2026-05-05 13:32 47.62061 -117.53827 2376 ft 12 kts 225°
2026-05-05 13:32 47.62000 -117.53918 2377 ft 13 kts 225°
2026-05-05 13:33 47.61931 -117.54022 2378 ft 15 kts 225°
2026-05-05 13:33 47.61849 -117.54146 2380 ft 18 kts 225°
2026-05-05 13:33 47.61758 -117.54282 2381 ft 18 kts 225°
2026-05-05 13:33 47.61673 -117.54410 2382 ft 16 kts 225°
2026-05-05 13:34 47.61597 -117.54524 2384 ft 15 kts 225°
2026-05-05 13:34 47.61523 -117.54636 2385 ft 15 kts 225°
2026-05-05 13:34 47.61447 -117.54751 2386 ft 16 kts 225°
2026-05-05 13:34 47.61366 -117.54874 2388 ft 17 kts 225°
2026-05-05 13:35 47.61284 -117.54997 2389 ft 16 kts 225°
2026-05-05 13:35 47.61211 -117.55106 2390 ft 12 kts 225°
2026-05-05 13:35 47.61152 -117.55163 2391 ft 9 kts 175°
2026-05-05 13:35 47.61094 -117.55112 2391 ft 10 kts 137°
2026-05-05 13:36 47.61041 -117.55032 2391 ft 10 kts 131°
2026-05-05 13:36 47.61045 -117.54945 2391 ft 9 kts 49°
2026-05-05 13:36 47.61055 -117.54931 2391 ft 0 kts 43°
2026-05-05 13:36 47.61091 -117.54881 2391 ft 29 kts 44°
2026-05-05 13:37 47.61414 -117.54396 2385 ft 102 kts 45°
2026-05-05 13:37 47.62075 -117.53403 2376 ft 166 kts 47°
2026-05-05 13:37 47.62922 -117.52062 2790 ft 185 kts 49°
2026-05-05 13:37 47.63832 -117.50668 3603 ft 194 kts 44°
2026-05-05 13:38 47.64827 -117.49302 4405 ft 206 kts 44°
2026-05-05 13:38 47.65905 -117.47818 5177 ft 220 kts 43°
2026-05-05 13:38 47.67039 -117.46237 6021 ft 232 kts 43°
2026-05-05 13:38 47.68216 -117.44564 6873 ft 244 kts 43°
2026-05-05 13:39 47.69232 -117.42524 7687 ft 259 kts 66°
2026-05-05 13:39 47.69606 -117.39844 8478 ft 276 kts 81°
2026-05-05 13:39 47.69732 -117.36960 9434 ft 284 kts 83°
2026-05-05 13:39 47.69812 -117.34045 10351 ft 291 kts 84°
2026-05-05 13:40 47.69879 -117.31001 11090 ft 304 kts 83°
2026-05-05 13:40 47.69946 -117.27784 11762 ft 319 kts 84°
2026-05-05 13:40 47.69819 -117.24654 12372 ft 339 kts 99°
2026-05-05 13:40 47.68910 -117.21511 12944 ft 361 kts 118°
2026-05-05 13:41 47.67465 -117.18349 13558 ft 377 kts 122°
2026-05-05 13:41 47.66089 -117.15475 14175 ft 388 kts 122°
2026-05-05 13:41 47.64505 -117.12180 14958 ft 395 kts 122°
2026-05-05 13:41 47.62889 -117.08827 15848 ft 400 kts 121°
2026-05-05 13:42 47.61290 -117.05513 16699 ft 404 kts 121°
2026-05-05 13:42 47.59636 -117.02088 17540 ft 408 kts 121°
2026-05-05 13:42 47.57993 -116.98688 18260 ft 414 kts 121°
2026-05-05 13:42 47.56305 -116.95201 18972 ft 420 kts 120°
2026-05-05 13:43 47.54591 -116.91666 19692 ft 425 kts 120°
2026-05-05 13:43 47.52875 -116.88131 20391 ft 430 kts 120°
2026-05-05 13:43 47.51119 -116.84515 21036 ft 436 kts 119°
2026-05-05 13:43 47.49366 -116.80913 21690 ft 440 kts 119°
2026-05-05 13:44 47.47555 -116.77196 22306 ft 445 kts 119°
2026-05-05 13:44 47.45750 -116.73496 22919 ft 450 kts 118°
2026-05-05 13:44 47.43912 -116.69733 23522 ft 454 kts 118°
2026-05-05 13:44 47.42077 -116.65981 24096 ft 459 kts 118°
2026-05-05 13:45 47.40196 -116.62141 24675 ft 462 kts 118°
2026-05-05 13:45 47.38310 -116.58298 25225 ft 466 kts 118°
2026-05-05 13:45 47.36415 -116.54439 25722 ft 471 kts 118°
2026-05-05 13:45 47.34496 -116.50539 26218 ft 475 kts 118°
2026-05-05 13:46 47.32566 -116.46622 26714 ft 478 kts 118°
2026-05-05 13:46 47.30614 -116.42666 27199 ft 481 kts 118°
2026-05-05 13:46 47.28638 -116.38667 27650 ft 485 kts 118°
2026-05-05 13:46 47.26652 -116.34654 28058 ft 489 kts 119°
2026-05-05 13:47 47.24641 -116.30597 28475 ft 492 kts 118°
2026-05-05 13:47 47.22639 -116.26563 28873 ft 496 kts 119°
2026-05-05 13:47 47.20583 -116.22426 29258 ft 500 kts 118°
2026-05-05 13:47 47.18538 -116.18320 29669 ft 502 kts 118°
2026-05-05 13:48 47.16517 -116.14265 30051 ft 505 kts 118°
2026-05-05 13:48 47.14376 -116.09979 30448 ft 507 kts 118°
2026-05-05 13:48 47.12292 -116.05813 30817 ft 510 kts 118°
2026-05-05 13:48 47.10193 -116.01623 31171 ft 512 kts 118°
2026-05-05 13:49 47.08058 -115.97369 31481 ft 515 kts 118°
2026-05-05 13:49 47.05942 -115.93156 31762 ft 519 kts 118°
2026-05-05 13:49 47.03809 -115.88917 32055 ft 521 kts 118°
2026-05-05 13:49 47.01659 -115.84651 32352 ft 524 kts 118°
2026-05-05 13:50 46.99477 -115.80330 32657 ft 526 kts 118°
2026-05-05 13:50 46.97317 -115.76058 32972 ft 527 kts 118°
2026-05-05 13:50 46.95131 -115.71744 33282 ft 528 kts 118°
2026-05-05 13:50 46.92950 -115.67445 33568 ft 530 kts 118°
2026-05-05 13:51 46.90728 -115.63072 33860 ft 531 kts 117°
2026-05-05 13:51 46.88516 -115.58730 34266 ft 531 kts 117°
2026-05-05 13:51 46.86322 -115.54425 34756 ft 530 kts 117°
2026-05-05 13:51 46.84114 -115.50106 34976 ft 526 kts 117°
2026-05-05 13:52 46.79813 -115.41718 35014 ft 515 kts 117°
2026-05-05 13:52 46.75612 -115.33537 35015 ft 516 kts 118°
2026-05-05 13:53 46.71290 -115.25140 35016 ft 517 kts 118°
2026-05-05 13:53 46.66972 -115.16784 35020 ft 516 kts 118°
2026-05-05 13:54 46.62743 -115.08619 35024 ft 515 kts 117°
2026-05-05 13:54 46.58425 -115.00309 35031 ft 515 kts 117°
2026-05-05 13:55 46.54118 -114.92043 35025 ft 516 kts 117°
2026-05-05 13:55 46.49889 -114.83953 35027 ft 515 kts 117°
2026-05-05 13:56 46.45542 -114.75658 35026 ft 515 kts 117°
2026-05-05 13:56 46.41201 -114.67401 35020 ft 517 kts 117°
2026-05-05 13:57 46.36846 -114.59145 35010 ft 515 kts 117°
2026-05-05 13:57 46.32489 -114.50905 35004 ft 514 kts 117°
2026-05-05 13:58 46.28148 -114.42717 35005 ft 518 kts 117°
2026-05-05 13:58 46.23802 -114.34552 35016 ft 515 kts 118°
2026-05-05 13:59 46.17224 -114.22230 35031 ft 517 kts 118°
2026-05-05 14:00 46.11408 -114.11383 35031 ft 516 kts 118°
2026-05-05 14:00 46.06278 -114.01849 35042 ft 515 kts 118°
2026-05-05 14:01 46.01888 -113.93713 35034 ft 518 kts 118°
2026-05-05 14:01 45.97488 -113.85586 35024 ft 519 kts 118°
2026-05-05 14:02 45.93045 -113.77405 35027 ft 517 kts 118°
2026-05-05 14:02 45.88654 -113.69340 35008 ft 517 kts 118°
2026-05-05 14:03 45.84223 -113.61226 35008 ft 519 kts 118°
2026-05-05 14:03 45.79814 -113.53177 35011 ft 517 kts 118°
2026-05-05 14:04 45.75383 -113.45106 35016 ft 518 kts 118°
2026-05-05 14:04 45.70941 -113.37042 35012 ft 519 kts 118°
2026-05-05 14:05 45.66561 -113.29112 35027 ft 520 kts 119°
2026-05-05 14:05 45.62058 -113.20985 35021 ft 517 kts 119°
2026-05-05 14:06 45.57613 -113.12983 35026 ft 519 kts 119°
2026-05-05 14:06 45.53204 -113.05069 35014 ft 520 kts 119°
2026-05-05 14:07 45.48714 -112.97030 35015 ft 522 kts 119°
2026-05-05 14:07 45.44287 -112.89131 35020 ft 520 kts 119°
2026-05-05 14:08 45.39813 -112.81170 35040 ft 520 kts 119°
2026-05-05 14:08 45.35313 -112.73183 35072 ft 519 kts 119°
2026-05-05 14:09 45.30788 -112.65175 35072 ft 519 kts 120°
2026-05-05 14:09 45.26266 -112.57193 35049 ft 520 kts 120°
2026-05-05 14:10 45.22041 -112.49073 35041 ft 511 kts 112°
2026-05-05 14:10 45.18271 -112.40550 35064 ft 508 kts 112°
2026-05-05 14:11 45.14517 -112.32171 35061 ft 510 kts 113°
2026-05-05 14:11 45.10672 -112.23677 35036 ft 512 kts 113°
2026-05-05 14:12 45.06833 -112.15267 35042 ft 512 kts 114°
2026-05-05 14:12 45.02946 -112.06793 35037 ft 513 kts 114°
2026-05-05 14:13 44.99043 -111.98323 35053 ft 516 kts 114°
2026-05-05 14:13 44.95173 -111.89962 35046 ft 511 kts 113°
2026-05-05 14:14 44.91262 -111.81525 35019 ft 517 kts 114°
2026-05-05 14:14 44.87342 -111.73112 35002 ft 513 kts 114°
2026-05-05 14:15 44.83511 -111.64905 35018 ft 516 kts 114°
2026-05-05 14:15 44.79569 -111.56486 35008 ft 516 kts 115°
2026-05-05 14:16 44.75787 -111.48434 35003 ft 515 kts 115°
2026-05-05 14:16 44.71819 -111.40010 35026 ft 516 kts 115°
2026-05-05 14:17 44.67846 -111.31600 35019 ft 516 kts 115°
2026-05-05 14:17 44.63858 -111.23180 35020 ft 518 kts 116°
2026-05-05 14:18 44.59858 -111.14765 35015 ft 519 kts 116°
2026-05-05 14:18 44.55867 -111.06392 35015 ft 518 kts 116°
2026-05-05 14:19 44.51866 -110.98019 35007 ft 521 kts 116°
2026-05-05 14:19 44.47828 -110.89598 35005 ft 518 kts 116°
2026-05-05 14:20 44.43787 -110.81193 34976 ft 519 kts 117°
2026-05-05 14:20 44.39778 -110.72876 34968 ft 520 kts 118°
2026-05-05 14:21 44.35744 -110.64535 34995 ft 518 kts 118°
2026-05-05 14:21 44.31668 -110.56128 35116 ft 522 kts 118°
2026-05-05 14:22 44.27643 -110.47855 35021 ft 518 kts 118°
2026-05-05 14:22 44.23559 -110.39478 35013 ft 523 kts 118°
2026-05-05 14:23 44.19484 -110.31146 35002 ft 521 kts 120°
2026-05-05 14:23 44.15402 -110.22827 35004 ft 520 kts 120°
2026-05-05 14:24 44.11310 -110.14510 34995 ft 519 kts 120°
2026-05-05 14:24 44.07166 -110.06110 34996 ft 521 kts 120°
2026-05-05 14:25 44.03075 -109.97842 35003 ft 518 kts 120°
2026-05-05 14:25 43.99151 -109.89932 35000 ft 521 kts 121°
2026-05-05 14:26 43.95082 -109.81755 34969 ft 520 kts 121°
2026-05-05 14:26 43.90958 -109.73490 34933 ft 519 kts 122°
2026-05-05 14:27 43.86848 -109.65273 34927 ft 522 kts 122°
2026-05-05 14:27 43.82889 -109.57385 34932 ft 517 kts 122°
2026-05-05 14:28 43.78789 -109.49236 34922 ft 519 kts 122°
2026-05-05 14:28 43.74662 -109.41054 34929 ft 517 kts 123°
2026-05-05 14:29 43.70718 -109.33257 34922 ft 516 kts 124°
2026-05-05 14:29 43.66838 -109.25607 34918 ft 516 kts 124°
2026-05-05 14:30 43.62737 -109.17545 34946 ft 515 kts 124°
2026-05-05 14:30 43.58591 -109.09415 34999 ft 515 kts 125°
2026-05-05 14:31 43.54504 -109.01424 35029 ft 510 kts 125°
2026-05-05 14:31 43.50478 -108.93571 35050 ft 513 kts 126°
2026-05-05 14:32 43.46386 -108.85613 35045 ft 512 kts 126°
2026-05-05 14:32 43.42272 -108.77633 35057 ft 512 kts 126°
2026-05-05 14:33 43.38146 -108.69651 35055 ft 511 kts 126°
2026-05-05 14:33 43.34038 -108.61726 35045 ft 513 kts 126°
2026-05-05 14:34 43.29926 -108.53815 35054 ft 513 kts 127°
2026-05-05 14:34 43.25782 -108.45863 35063 ft 512 kts 127°
2026-05-05 14:35 43.21645 -108.37944 35069 ft 511 kts 127°
2026-05-05 14:35 43.17528 -108.30086 35038 ft 510 kts 128°
2026-05-05 14:36 43.13395 -108.22218 35037 ft 510 kts 128°
2026-05-05 14:36 43.09226 -108.14303 35044 ft 510 kts 129°
2026-05-05 14:37 43.05104 -108.06498 35044 ft 510 kts 129°
2026-05-05 14:37 43.00970 -107.98692 35019 ft 510 kts 129°
2026-05-05 14:38 42.96814 -107.90863 35006 ft 509 kts 129°
2026-05-05 14:38 42.92670 -107.83077 35001 ft 510 kts 129°
2026-05-05 14:39 42.88497 -107.75259 34991 ft 510 kts 129°
2026-05-05 14:39 42.84309 -107.67432 34981 ft 511 kts 129°
2026-05-05 14:40 42.80318 -107.59993 34970 ft 510 kts 129°
2026-05-05 14:40 42.76123 -107.52193 34963 ft 509 kts 130°
2026-05-05 14:41 42.71943 -107.44442 34961 ft 510 kts 130°
2026-05-05 14:41 42.67850 -107.36870 34963 ft 508 kts 130°
2026-05-05 14:42 42.63660 -107.29140 34953 ft 510 kts 131°
2026-05-05 14:42 42.59438 -107.21371 34953 ft 509 kts 131°
2026-05-05 14:43 42.55414 -107.13985 34957 ft 509 kts 131°
2026-05-05 14:43 42.51196 -107.06262 34965 ft 509 kts 131°
2026-05-05 14:44 42.47079 -106.98743 34976 ft 509 kts 131°
2026-05-05 14:44 42.42872 -106.91080 34973 ft 508 kts 131°
2026-05-05 14:45 42.38625 -106.83365 34976 ft 510 kts 131°
2026-05-05 14:45 42.34421 -106.75744 34975 ft 507 kts 132°
2026-05-05 14:46 42.30210 -106.68135 34965 ft 511 kts 131°
2026-05-05 14:46 42.25954 -106.60458 34962 ft 508 kts 132°
2026-05-05 14:47 42.21737 -106.52875 34963 ft 509 kts 132°
2026-05-05 14:47 42.17490 -106.45255 34953 ft 509 kts 132°
2026-05-05 14:48 42.13222 -106.37619 34965 ft 510 kts 132°
2026-05-05 14:48 42.08960 -106.30011 34949 ft 510 kts 133°
2026-05-05 14:49 42.04698 -106.22422 34961 ft 510 kts 133°
2026-05-05 14:49 42.00475 -106.14922 34944 ft 510 kts 133°
2026-05-05 14:50 41.96221 -106.07385 34972 ft 509 kts 133°
2026-05-05 14:50 41.91948 -105.99834 34857 ft 507 kts 133°
2026-05-05 14:51 41.87682 -105.92316 35080 ft 512 kts 134°
2026-05-05 14:51 41.85522 -105.88515 34933 ft 508 kts 134°
2026-05-05 14:51 41.83380 -105.84749 34989 ft 508 kts 134°
2026-05-05 14:52 41.79185 -105.77391 34975 ft 509 kts 134°
2026-05-05 14:52 41.74892 -105.69882 34988 ft 510 kts 134°
2026-05-05 14:53 41.70585 -105.62362 34984 ft 508 kts 134°
2026-05-05 14:53 41.66264 -105.54840 34972 ft 510 kts 134°
2026-05-05 14:54 41.62315 -105.47977 34981 ft 507 kts 134°
2026-05-05 14:54 41.58021 -105.40539 34982 ft 511 kts 135°
2026-05-05 14:55 41.53711 -105.33088 34973 ft 506 kts 135°
2026-05-05 14:55 41.49415 -105.25680 34990 ft 510 kts 136°
2026-05-05 14:56 41.45060 -105.18185 35001 ft 505 kts 136°
2026-05-05 14:56 41.40739 -105.10776 34987 ft 510 kts 136°
2026-05-05 14:57 41.36407 -105.03357 35004 ft 508 kts 136°
2026-05-05 14:57 41.32048 -104.95915 35002 ft 509 kts 136°
2026-05-05 14:58 41.27743 -104.88579 35050 ft 508 kts 136°
2026-05-05 14:58 41.23387 -104.81178 35030 ft 510 kts 136°
2026-05-05 14:59 41.19127 -104.73658 35161 ft 516 kts 129°
2026-05-05 14:59 41.17349 -104.69487 35052 ft 517 kts 126°
2026-05-05 14:59 41.15648 -104.65308 35046 ft 518 kts 126°
2026-05-05 15:00 41.12732 -104.58274 35026 ft 527 kts 126°
2026-05-05 15:00 41.08608 -104.48499 35021 ft 520 kts 127°
2026-05-05 15:01 41.05010 -104.40102 35028 ft 526 kts 127°
2026-05-05 15:01 41.01409 -104.31758 35020 ft 529 kts 128°
2026-05-05 15:02 40.97755 -104.23336 35009 ft 527 kts 129°
2026-05-05 15:02 40.94279 -104.15359 35014 ft 526 kts 129°
2026-05-05 15:03 40.90615 -104.06980 35022 ft 525 kts 129°
2026-05-05 15:03 40.86937 -103.98604 35028 ft 527 kts 129°
2026-05-05 15:04 40.83257 -103.90244 35034 ft 531 kts 129°
2026-05-05 15:04 40.79542 -103.81826 35038 ft 528 kts 129°
2026-05-05 15:05 40.73963 -103.69235 35047 ft 531 kts 130°
2026-05-05 15:06 40.70238 -103.60857 35045 ft 531 kts 130°
2026-05-05 15:06 40.66524 -103.52528 35038 ft 534 kts 130°
2026-05-05 15:07 40.62795 -103.44179 35025 ft 529 kts 130°
2026-05-05 15:07 40.59024 -103.35776 35038 ft 535 kts 130°
2026-05-05 15:08 40.55268 -103.27415 35009 ft 535 kts 131°
2026-05-05 15:08 40.51497 -103.19049 35016 ft 534 kts 130°
2026-05-05 15:09 40.47693 -103.10631 35011 ft 533 kts 130°
2026-05-05 15:09 40.43906 -103.02281 35011 ft 539 kts 130°
2026-05-05 15:10 40.40088 -102.93874 35011 ft 536 kts 131°
2026-05-05 15:10 40.36279 -102.85516 35016 ft 538 kts 131°
2026-05-05 15:11 40.32437 -102.77106 35018 ft 538 kts 130°
2026-05-05 15:11 40.28596 -102.68722 35031 ft 539 kts 131°
2026-05-05 15:12 40.24740 -102.60328 35025 ft 539 kts 130°
2026-05-05 15:12 40.20875 -102.51942 35029 ft 543 kts 131°
2026-05-05 15:13 40.16978 -102.43502 35031 ft 542 kts 130°
2026-05-05 15:13 40.13083 -102.35096 35025 ft 545 kts 130°
2026-05-05 15:14 40.09171 -102.26666 35003 ft 542 kts 131°
2026-05-05 15:14 40.05264 -102.18277 35000 ft 543 kts 131°
2026-05-05 15:15 40.01385 -102.09970 35002 ft 545 kts 131°
2026-05-05 15:15 39.97462 -102.01591 35011 ft 546 kts 131°
2026-05-05 15:16 39.93511 -101.93174 35008 ft 546 kts 131°
2026-05-05 15:16 39.89547 -101.84753 35015 ft 546 kts 131°
2026-05-05 15:17 39.85581 -101.76348 35030 ft 548 kts 131°
2026-05-05 15:17 39.81593 -101.67920 35024 ft 547 kts 131°
2026-05-05 15:18 39.77652 -101.59618 35018 ft 550 kts 131°
2026-05-05 15:18 39.73662 -101.51228 35012 ft 548 kts 131°
2026-05-05 15:19 39.69698 -101.42921 35012 ft 550 kts 131°
2026-05-05 15:19 39.65683 -101.34523 35003 ft 549 kts 131°
2026-05-05 15:20 39.61672 -101.26157 34980 ft 548 kts 131°
2026-05-05 15:20 39.57623 -101.17740 34980 ft 549 kts 132°
2026-05-05 15:21 39.53605 -101.09405 34994 ft 550 kts 132°
2026-05-05 15:21 39.49555 -101.01030 35001 ft 551 kts 131°
2026-05-05 15:22 39.45496 -100.92651 34999 ft 548 kts 131°
2026-05-05 15:22 39.41441 -100.84312 34998 ft 553 kts 131°
2026-05-05 15:23 39.37359 -100.75932 34990 ft 552 kts 131°
2026-05-05 15:23 39.33280 -100.67582 34986 ft 552 kts 131°
2026-05-05 15:24 39.29174 -100.59197 34987 ft 552 kts 131°
2026-05-05 15:24 39.25093 -100.50889 34987 ft 551 kts 131°
2026-05-05 15:25 39.20988 -100.42554 34991 ft 554 kts 131°
2026-05-05 15:25 39.16867 -100.34206 34989 ft 553 kts 132°
2026-05-05 15:26 39.12770 -100.25925 34970 ft 552 kts 132°
2026-05-05 15:26 39.08607 -100.17539 34972 ft 552 kts 131°
2026-05-05 15:27 39.04577 -100.09442 34971 ft 555 kts 132°
2026-05-05 15:27 39.00416 -100.01099 34969 ft 555 kts 131°
2026-05-05 15:28 38.96271 -99.92809 34971 ft 554 kts 131°
2026-05-05 15:28 38.92092 -99.84477 34972 ft 556 kts 131°
2026-05-05 15:29 38.87913 -99.76163 34978 ft 555 kts 131°
2026-05-05 15:29 38.83758 -99.67919 34978 ft 555 kts 131°
2026-05-05 15:30 38.79605 -99.59701 34981 ft 556 kts 131°
2026-05-05 15:30 38.75420 -99.51440 34982 ft 557 kts 131°
2026-05-05 15:31 38.71233 -99.43195 34979 ft 554 kts 131°
2026-05-05 15:31 38.67014 -99.34910 34985 ft 555 kts 132°
2026-05-05 15:32 38.62807 -99.26671 34953 ft 557 kts 131°
2026-05-05 15:32 38.58591 -99.18430 34948 ft 554 kts 132°
2026-05-05 15:33 38.54367 -99.10197 34947 ft 553 kts 132°
2026-05-05 15:33 38.50221 -99.02143 34943 ft 556 kts 132°
2026-05-05 15:34 38.45982 -98.93920 34954 ft 556 kts 131°
2026-05-05 15:34 38.41730 -98.85696 34961 ft 553 kts 131°
2026-05-05 15:35 38.37488 -98.77513 34970 ft 557 kts 131°
2026-05-05 15:35 38.33244 -98.69344 34966 ft 555 kts 131°
2026-05-05 15:36 38.28969 -98.61137 34945 ft 555 kts 131°
2026-05-05 15:36 38.24712 -98.52987 34947 ft 557 kts 131°
2026-05-05 15:37 38.20448 -98.44842 34950 ft 556 kts 131°
2026-05-05 15:37 38.16157 -98.36667 34950 ft 556 kts 131°
2026-05-05 15:38 38.11881 -98.28536 34920 ft 556 kts 132°
2026-05-05 15:38 38.07598 -98.20418 34920 ft 555 kts 132°
2026-05-05 15:39 38.03269 -98.12234 34922 ft 559 kts 132°
2026-05-05 15:39 37.98964 -98.04109 34924 ft 556 kts 132°
2026-05-05 15:40 37.94646 -97.95985 34925 ft 558 kts 132°
2026-05-05 15:40 37.90333 -97.87888 34928 ft 557 kts 131°
2026-05-05 15:41 37.85988 -97.79752 34924 ft 559 kts 131°
2026-05-05 15:41 37.81648 -97.71644 34930 ft 556 kts 131°
2026-05-05 15:42 37.77297 -97.63537 34918 ft 557 kts 131°
2026-05-05 15:42 37.72997 -97.55398 34922 ft 564 kts 126°
2026-05-05 15:43 37.69401 -97.46555 34923 ft 566 kts 122°
2026-05-05 15:43 37.65864 -97.37704 34929 ft 566 kts 123°
2026-05-05 15:44 37.62287 -97.28891 34899 ft 566 kts 124°
2026-05-05 15:44 37.58687 -97.20113 34901 ft 569 kts 124°
2026-05-05 15:45 37.55048 -97.11304 34897 ft 566 kts 124°
2026-05-05 15:45 37.51386 -97.02487 34894 ft 569 kts 124°
2026-05-05 15:46 37.47721 -96.93698 34877 ft 567 kts 124°
2026-05-05 15:46 37.44062 -96.84954 34868 ft 567 kts 123°
2026-05-05 15:47 37.40394 -96.76219 34864 ft 565 kts 123°
2026-05-05 15:47 37.36717 -96.67490 34866 ft 567 kts 123°
2026-05-05 15:48 37.33028 -96.58756 34858 ft 567 kts 123°
2026-05-05 15:48 37.29323 -96.50007 34862 ft 566 kts 123°
2026-05-05 15:49 37.25644 -96.41348 34853 ft 568 kts 123°
2026-05-05 15:49 37.21920 -96.32604 34825 ft 567 kts 124°
2026-05-05 15:50 37.18240 -96.23985 34829 ft 567 kts 124°
2026-05-05 15:50 37.14461 -96.15163 34826 ft 569 kts 124°
2026-05-05 15:51 37.10751 -96.06521 34823 ft 569 kts 124°
2026-05-05 15:51 37.07001 -95.97810 34827 ft 567 kts 124°
2026-05-05 15:52 37.03261 -95.89148 34822 ft 569 kts 123°
2026-05-05 15:52 36.99506 -95.80472 34817 ft 569 kts 124°
2026-05-05 15:53 36.95725 -95.71759 34826 ft 568 kts 124°
2026-05-05 15:53 36.91959 -95.63107 34820 ft 570 kts 123°
2026-05-05 15:54 36.88179 -95.54443 34814 ft 570 kts 124°
2026-05-05 15:54 36.84394 -95.45793 34808 ft 571 kts 123°
2026-05-05 15:55 36.80625 -95.37199 34803 ft 570 kts 123°
2026-05-05 15:55 36.76803 -95.28507 34781 ft 568 kts 124°
2026-05-05 15:56 36.72996 -95.19875 34777 ft 571 kts 124°
2026-05-05 15:56 36.69158 -95.11195 34771 ft 570 kts 124°
2026-05-05 15:57 36.65341 -95.02583 34777 ft 571 kts 124°
2026-05-05 15:57 36.61521 -94.93987 34777 ft 569 kts 124°
2026-05-05 15:58 36.57676 -94.85358 34782 ft 571 kts 124°
2026-05-05 15:58 36.53836 -94.76765 34787 ft 572 kts 124°
2026-05-05 15:59 36.49985 -94.68167 34785 ft 571 kts 124°
2026-05-05 15:59 36.46099 -94.59515 34779 ft 573 kts 124°
2026-05-05 16:00 36.42230 -94.50921 34784 ft 571 kts 124°
2026-05-05 16:00 36.38367 -94.42367 34803 ft 573 kts 123°
2026-05-05 16:01 36.34469 -94.33752 34792 ft 572 kts 124°
2026-05-05 16:01 36.30576 -94.25173 34776 ft 570 kts 124°
2026-05-05 16:02 36.26804 -94.16882 34778 ft 574 kts 124°
2026-05-05 16:02 36.23116 -94.09457 34793 ft 567 kts 130°
2026-05-05 16:03 36.18609 -94.01364 34785 ft 567 kts 130°
2026-05-05 16:03 36.14078 -93.93276 34784 ft 566 kts 130°
2026-05-05 16:04 36.09576 -93.85263 34788 ft 571 kts 130°
2026-05-05 16:04 36.05083 -93.77283 34776 ft 566 kts 131°
2026-05-05 16:05 36.00601 -93.69342 34768 ft 564 kts 131°
2026-05-05 16:05 35.96087 -93.61369 34778 ft 569 kts 130°
2026-05-05 16:06 35.91575 -93.53412 34803 ft 567 kts 130°
2026-05-05 16:06 35.87075 -93.45496 34793 ft 566 kts 130°
2026-05-05 16:07 35.82552 -93.37560 34799 ft 566 kts 129°
2026-05-05 16:07 35.78215 -93.29967 34776 ft 567 kts 130°
2026-05-05 16:08 35.73664 -93.22012 34776 ft 562 kts 131°
2026-05-05 16:08 35.69201 -93.14234 34773 ft 566 kts 130°
2026-05-05 16:09 35.64648 -93.06317 34777 ft 569 kts 130°
2026-05-05 16:09 35.60164 -92.98535 34778 ft 566 kts 131°
2026-05-05 16:10 35.55573 -92.90591 34767 ft 570 kts 130°
2026-05-05 16:10 35.50995 -92.82679 34782 ft 567 kts 130°
2026-05-05 16:11 35.46405 -92.74766 34445 ft 564 kts 131°
2026-05-05 16:11 35.39476 -92.62869 31273 ft 585 kts 129°
2026-05-05 16:12 35.37114 -92.58820 30356 ft 588 kts 129°
2026-05-05 16:12 35.32393 -92.50732 29246 ft 576 kts 129°
2026-05-05 16:13 35.25496 -92.38954 27380 ft 564 kts 128°
2026-05-05 16:13 35.23287 -92.35053 26750 ft 562 kts 124°
2026-05-05 16:13 35.21445 -92.30820 26063 ft 561 kts 116°
2026-05-05 16:14 35.19265 -92.21771 24683 ft 552 kts 98°
2026-05-05 16:14 35.18689 -92.13062 23553 ft 529 kts 93°
2026-05-05 16:15 35.18247 -92.04339 22598 ft 503 kts 93°
2026-05-05 16:15 35.17849 -91.96903 21760 ft 482 kts 93°
2026-05-05 16:16 35.17404 -91.88866 20844 ft 464 kts 93°
2026-05-05 16:16 35.16961 -91.81082 19904 ft 455 kts 94°
2026-05-05 16:17 35.16517 -91.73442 18961 ft 447 kts 94°
2026-05-05 16:17 35.16296 -91.69705 18494 ft 444 kts 94°
2026-05-05 16:18 35.15851 -91.62231 17558 ft 437 kts 94°
2026-05-05 16:18 35.15632 -91.58582 17140 ft 432 kts 94°
2026-05-05 16:18 35.15194 -91.51363 16411 ft 420 kts 94°
2026-05-05 16:19 35.14979 -91.47842 16066 ft 414 kts 95°
2026-05-05 16:19 35.14767 -91.44385 15725 ft 409 kts 95°
2026-05-05 16:19 35.14345 -91.37561 15026 ft 399 kts 95°
2026-05-05 16:20 35.13929 -91.30907 14311 ft 389 kts 96°
2026-05-05 16:20 35.13518 -91.24376 13576 ft 381 kts 96°
2026-05-05 16:21 35.13134 -91.18333 12895 ft 373 kts 96°
2026-05-05 16:22 35.12535 -91.09003 11819 ft 363 kts 96°
2026-05-05 16:22 35.12140 -91.02917 11087 ft 357 kts 96°
2026-05-05 16:23 35.11750 -90.96940 10338 ft 351 kts 96°
2026-05-05 16:23 35.11556 -90.93997 9973 ft 346 kts 96°
2026-05-05 16:23 35.11180 -90.88288 9375 ft 329 kts 96°
2026-05-05 16:24 35.10997 -90.85541 9088 ft 321 kts 97°
2026-05-05 16:24 35.10818 -90.82849 8799 ft 314 kts 97°
2026-05-05 16:24 35.10471 -90.77673 8232 ft 302 kts 97°
2026-05-05 16:25 35.10301 -90.75146 7944 ft 296 kts 97°
2026-05-05 16:25 35.09968 -90.70225 7451 ft 287 kts 97°
2026-05-05 16:25 35.09803 -90.67793 7247 ft 282 kts 97°
2026-05-05 16:26 35.09483 -90.63113 6855 ft 272 kts 97°
2026-05-05 16:26 35.09174 -90.58613 6473 ft 267 kts 97°
2026-05-05 16:27 35.09018 -90.56351 6277 ft 265 kts 97°
2026-05-05 16:27 35.08874 -90.54125 6084 ft 264 kts 93°
2026-05-05 16:27 35.09207 -90.51921 5871 ft 263 kts 70°
2026-05-05 16:27 35.09887 -90.49853 5683 ft 265 kts 68°
2026-05-05 16:28 35.10603 -90.47788 5524 ft 264 kts 68°
2026-05-05 16:28 35.11330 -90.45714 5378 ft 264 kts 68°
2026-05-05 16:28 35.12054 -90.43669 5239 ft 263 kts 68°
2026-05-05 16:28 35.12785 -90.41621 5094 ft 262 kts 68°
2026-05-05 16:29 35.13516 -90.39591 4950 ft 261 kts 68°
2026-05-05 16:29 35.14267 -90.37563 4801 ft 261 kts 63°
2026-05-05 16:29 35.15354 -90.35786 4651 ft 262 kts 49°
2026-05-05 16:29 35.16573 -90.34153 4502 ft 262 kts 49°
2026-05-05 16:30 35.17798 -90.32536 4348 ft 260 kts 49°
2026-05-05 16:30 35.19042 -90.30904 4196 ft 261 kts 49°
2026-05-05 16:30 35.20244 -90.29342 4047 ft 260 kts 48°
2026-05-05 16:30 35.21487 -90.27731 3892 ft 258 kts 49°
2026-05-05 16:31 35.22542 -90.26376 3763 ft 259 kts 49°
2026-05-05 16:31 35.23790 -90.24783 3609 ft 257 kts 49°
2026-05-05 16:31 35.24936 -90.23326 3470 ft 256 kts 48°
2026-05-05 16:31 35.26170 -90.21766 3317 ft 256 kts 48°
2026-05-05 16:32 35.27413 -90.20197 3164 ft 256 kts 49°
2026-05-05 16:32 35.28650 -90.18649 3011 ft 255 kts 48°
2026-05-05 16:32 35.29890 -90.17105 2935 ft 252 kts 48°
2026-05-05 16:32 35.31120 -90.15580 2929 ft 254 kts 50°
2026-05-05 16:33 35.32062 -90.13795 2926 ft 248 kts 79°
2026-05-05 16:33 35.32383 -90.11807 2932 ft 232 kts 88°
2026-05-05 16:33 35.32613 -90.09888 2933 ft 224 kts 88°
2026-05-05 16:33 35.32825 -90.08005 2931 ft 220 kts 95°
2026-05-05 16:34 35.32511 -90.06271 2919 ft 203 kts 130°
2026-05-05 16:34 35.31659 -90.04915 2935 ft 202 kts 137°
2026-05-05 16:34 35.30743 -90.03635 2930 ft 199 kts 138°
2026-05-05 16:34 35.29829 -90.02365 2932 ft 199 kts 138°
2026-05-05 16:35 35.28907 -90.01083 2940 ft 198 kts 138°
2026-05-05 16:35 35.27971 -89.99869 2932 ft 193 kts 151°
2026-05-05 16:35 35.26766 -89.99287 2941 ft 187 kts 174°
2026-05-05 16:35 35.25470 -89.99143 2938 ft 186 kts 180°
2026-05-05 16:36 35.24184 -89.99113 2937 ft 184 kts 182°
2026-05-05 16:36 35.22887 -89.99103 2943 ft 185 kts 182°
2026-05-05 16:36 35.21613 -89.99087 2942 ft 184 kts 182°
2026-05-05 16:36 35.20326 -89.99065 2939 ft 184 kts 182°
2026-05-05 16:37 35.19027 -89.99041 2946 ft 186 kts 181°
2026-05-05 16:37 35.17726 -89.99014 2793 ft 187 kts 181°
2026-05-05 16:37 35.16432 -89.98987 2550 ft 184 kts 181°
2026-05-05 16:37 35.15168 -89.98961 2296 ft 179 kts 181°
2026-05-05 16:38 35.13945 -89.98935 2069 ft 173 kts 181°
2026-05-05 16:38 35.12761 -89.98910 1842 ft 167 kts 180°
2026-05-05 16:38 35.11655 -89.98888 1632 ft 152 kts 181°
2026-05-05 16:38 35.10639 -89.98866 1441 ft 141 kts 180°
2026-05-05 16:39 35.09657 -89.98844 1267 ft 139 kts 180°
2026-05-05 16:39 35.08693 -89.98822 1074 ft 140 kts 180°
2026-05-05 16:39 35.07701 -89.98819 854 ft 141 kts 179°
2026-05-05 16:39 35.06719 -89.98801 677 ft 144 kts 179°
2026-05-05 16:40 35.05710 -89.98772 476 ft 146 kts 178°
2026-05-05 16:40 35.04685 -89.98740 305 ft 147 kts 178°
2026-05-05 16:40 35.03746 -89.98718 302 ft 113 kts 178°
2026-05-05 16:40 35.03114 -89.98702 318 ft 69 kts 179°
2026-05-05 16:41 35.02821 -89.98672 326 ft 32 kts 163°
2026-05-05 16:41 35.02716 -89.98612 330 ft 10 kts 146°
2026-05-05 16:41 35.02670 -89.98561 332 ft 7 kts 130°
2026-05-05 16:41 35.02651 -89.98509 333 ft 6 kts 97°
2026-05-05 16:42 35.02680 -89.98467 333 ft 9 kts 12°
2026-05-05 16:42 35.02766 -89.98464 331 ft 14 kts 359°
2026-05-05 16:42 35.02875 -89.98467 328 ft 16 kts
2026-05-05 16:42 35.02986 -89.98468 324 ft 14 kts 359°
2026-05-05 16:43 35.03090 -89.98470 322 ft 15 kts 359°
2026-05-05 16:43 35.03210 -89.98472 318 ft 19 kts 359°
2026-05-05 16:43 35.03350 -89.98475 314 ft 18 kts 359°
2026-05-05 16:43 35.03481 -89.98478 311 ft 19 kts 359°
2026-05-05 16:44 35.03613 -89.98481 307 ft 17 kts 358°
2026-05-05 16:44 35.03737 -89.98489 305 ft 17 kts 358°
2026-05-05 16:44 35.03836 -89.98492 304 ft 10 kts 358°
2026-05-05 16:44 35.03886 -89.98555 302 ft 11 kts 303°
2026-05-05 16:45 35.03961 -89.98589 300 ft 12 kts 360°
2026-05-05 16:45 35.04059 -89.98591 299 ft 15 kts 359°
2026-05-05 16:45 35.04179 -89.98594 298 ft 18 kts 359°
2026-05-05 16:45 35.04304 -89.98597 296 ft 17 kts 359°
2026-05-05 16:46 35.04427 -89.98599 295 ft 17 kts 359°
2026-05-05 16:46 35.04549 -89.98601 293 ft 17 kts 359°
2026-05-05 16:46 35.04668 -89.98605 292 ft 17 kts 359°
2026-05-05 16:46 35.04788 -89.98607 290 ft 17 kts 359°
2026-05-05 16:47 35.04910 -89.98608 288 ft 17 kts
2026-05-05 16:47 35.05026 -89.98572 286 ft 17 kts 25°
2026-05-05 16:47 35.05144 -89.98515 283 ft 18 kts 10°
2026-05-05 16:47 35.05271 -89.98511 279 ft 19 kts
2026-05-05 16:48 35.05396 -89.98510 276 ft 17 kts
2026-05-05 16:48 35.05525 -89.98508 272 ft 19 kts
2026-05-05 16:48 35.05654 -89.98506 269 ft 17 kts
2026-05-05 16:48 35.05771 -89.98505 267 ft 16 kts
2026-05-05 16:49 35.05886 -89.98505 265 ft 16 kts 356°
2026-05-05 16:49 35.05984 -89.98511 263 ft 11 kts 11°
2026-05-05 16:49 35.06021 -89.98441 263 ft 10 kts 86°
2026-05-05 16:49 35.06020 -89.98343 264 ft 12 kts 92°
2026-05-05 16:50 35.06017 -89.98218 264 ft 16 kts 92°
2026-05-05 16:50 35.06013 -89.98081 265 ft 15 kts 92°
2026-05-05 16:50 35.06009 -89.97960 266 ft 13 kts 92°
2026-05-05 16:50 35.06006 -89.97843 267 ft 14 kts 93°
2026-05-05 16:51 35.05990 -89.97717 268 ft 15 kts 103°
2026-05-05 16:51 35.05964 -89.97594 269 ft 13 kts 105°
2026-05-05 16:51 35.05942 -89.97487 270 ft 12 kts 98°
2026-05-05 16:51 35.05938 -89.97399 271 ft 7 kts 92°
2026-05-05 16:52 35.05964 -89.97361 271 ft 6 kts 14°
2026-05-05 16:52 35.06004 -89.97356 270 ft 4 kts
2026-05-05 16:52 35.06019 -89.97355 270 ft 0 kts